TimeCDT,TemperatureF,Dew PointF,Humidity,Sea Level PressureIn,VisibilityMPH,Wind Direction,Wind SpeedMPH,Gust SpeedMPH,PrecipitationIn,Events,Conditions,WindDirDegrees,DateUTC
12:56 AM,39.0,35.1,86,29.99,10.0,Calm,Calm,-,N/A,,Clear,0,2012-11-01 05:56:00
1:56 AM,37.0,33.1,86,30.00,10.0,Calm,Calm,-,N/A,,Clear,0,2012-11-01 06:56:00
2:56 AM,39.9,35.1,83,30.01,10.0,NNE,6.9,-,N/A,,Scattered Clouds,30,2012-11-01 07:56:00
3:56 AM,41.0,37.0,86,30.01,9.0,NNE,5.8,-,N/A,,Partly Cloudy,20,2012-11-01 08:56:00
4:56 AM,39.0,36.0,89,30.01,6.0,North,5.8,-,N/A,,Clear,10,2012-11-01 09:56:00
5:09 AM,37.4,35.6,93,29.99,6.0,NNE,6.9,-,N/A,,Partly Cloudy,20,2012-11-01 10:09:00
5:18 AM,39.2,37.4,93,29.99,6.0,NNE,8.1,-,N/A,,Mostly Cloudy,20,2012-11-01 10:18:00
5:56 AM,41.0,39.0,93,30.02,6.0,NNE,12.7,-,N/A,,Overcast,30,2012-11-01 10:56:00
6:56 AM,41.0,39.0,93,30.04,6.0,NNE,11.5,-,N/A,,Overcast,20,2012-11-01 11:56:00
7:56 AM,39.0,37.9,96,30.06,5.0,NNE,12.7,-,N/A,,Overcast,30,2012-11-01 12:56:00
8:56 AM,37.9,35.1,89,30.09,10.0,NNE,13.8,-,N/A,,Overcast,20,2012-11-01 13:56:00
9:33 AM,37.4,33.8,87,30.06,10.0,North,10.4,-,N/A,,Overcast,10,2012-11-01 14:33:00
9:56 AM,37.9,32.0,79,30.09,10.0,North,12.7,-,N/A,,Mostly Cloudy,10,2012-11-01 14:56:00
10:45 AM,39.2,30.2,70,30.07,10.0,NNE,11.5,-,N/A,,Scattered Clouds,20,2012-11-01 15:45:00
10:56 AM,39.9,30.9,70,30.10,10.0,NNE,11.5,-,N/A,,Scattered Clouds,30,2012-11-01 15:56:00
11:56 AM,42.1,30.9,65,30.11,10.0,North,5.8,-,N/A,,Partly Cloudy,360,2012-11-01 16:56:00
12:56 PM,45.0,30.0,56,30.09,10.0,NNW,5.8,-,N/A,,Clear,330,2012-11-01 17:56:00
1:56 PM,46.0,30.0,54,30.06,10.0,North,6.9,-,N/A,,Clear,10,2012-11-01 18:56:00
2:56 PM,46.9,27.0,46,30.04,10.0,NE,9.2,-,N/A,,Partly Cloudy,40,2012-11-01 19:56:00
3:56 PM,46.9,26.1,44,30.02,10.0,NNE,6.9,-,N/A,,Clear,20,2012-11-01 20:56:00
4:56 PM,46.9,26.1,44,30.02,10.0,NNE,6.9,-,N/A,,Clear,30,2012-11-01 21:56:00
5:56 PM,42.1,25.0,51,30.02,10.0,NE,9.2,-,N/A,,Clear,50,2012-11-01 22:56:00
6:56 PM,39.0,24.1,55,30.03,10.0,NE,5.8,-,N/A,,Clear,40,2012-11-01 23:56:00
7:56 PM,37.9,25.0,60,30.04,10.0,NE,9.2,-,N/A,,Clear,40,2012-11-02 00:56:00
8:56 PM,36.0,24.1,62,30.05,10.0,NE,11.5,-,N/A,,Clear,50,2012-11-02 01:56:00
9:56 PM,34.0,24.1,67,30.05,10.0,ENE,9.2,-,N/A,,Clear,60,2012-11-02 02:56:00
10:56 PM,33.1,24.1,70,30.07,10.0,NE,6.9,-,N/A,,Clear,40,2012-11-02 03:56:00
11:56 PM,32.0,24.1,73,30.07,10.0,NE,9.2,-,N/A,,Clear,50,2012-11-02 04:56:00